FW5215 Weather Reports


time (UTC)temp
C
wind
direction
speed
KPH
gust
KPH
rain 1hr
cm
rain 24hr
cm
rain mn
cm
humidity
%
barometer
mb
20260510190110 12 332 1.6 9.7 0.00 0.00 0.00 43 1018.4
20260510184605 12 39 4.8 22.5 0.00 0.00 0.00 39 1018.4
20260510183012 12 296 6.4 14.5 0.00 0.00 0.00 43 1018.6
20260510181508 12 319 6.4 17.7 0.00 0.00 0.00 40 1018.2
20260510180006 12 328 3.2 16.1 0.00 0.00 0.00 44 1018.4
20260510174608 12 337 3.2 16.1 0.00 0.00 0.00 42 1018.4
20260510173012 12 15 6.4 14.5 0.00 0.00 0.00 43 1018.5
20260510171512 11 339 3.2 17.7 0.00 0.00 0.00 47 1018.3
20260510170005 11 285 4.8 14.5 0.00 0.00 0.00 46 1018.2
20260510164517 11 5 6.4 17.7 0.00 0.00 0.00 46 1018.3
20260510163007 11 318 3.2 19.3 0.00 0.00 0.00 45 1018.1
20260510161603 10 319 6.4 16.1 0.00 0.00 0.00 50 1018.0
20260510160014 10 294 8.0 16.1 0.00 0.00 0.00 49 1018.0
20260510154507 10 303 3.2 14.5 0.00 0.00 0.00 47 1018.0
20260510153103 10 345 6.4 19.3 0.00 0.00 0.00 50 1017.8
20260510151509 10 282 4.8 16.1 0.00 0.00 0.00 50 1017.6
20260510150006 10 309 3.2 12.9 0.00 0.00 0.00 49 1017.3
20260510144526 9 28 3.2 14.5 0.00 0.00 0.00 50 1017.1
20260510143011 9 49 3.2 14.5 0.00 0.00 0.00 55 1017.2
20260510141604 8 313 4.8 16.1 0.00 0.00 0.00 53 1017.1
20260510140014 8 345 4.8 14.5 0.00 0.00 0.00 55 1016.9
20260510134508 7 299 6.4 17.7 0.00 0.00 0.00 61 1016.9
20260510133005 7 313 8.0 16.1 0.00 0.00 0.00 62 1017.0
20260510131604 7 328 3.2 14.5 0.00 0.00 0.00 60 1016.9
20260510130014 7 330 4.8 9.7 0.00 0.00 0.00 64 1016.7
20260510124509 7 277 6.4 14.5 0.00 0.00 0.00 65 1016.7
20260510123013 7 299 1.6 9.7 0.00 0.00 0.00 69 1016.5
20260510121505 6 350 1.6 6.4 0.00 0.00 0.00 71 1016.4
20260510120003 6 319 1.6 11.3 0.00 0.00 0.00 70 1016.2
20260510114606 6 282 3.2 8.0 0.00 0.00 0.00 70 1015.9
20260510113018 5 278 1.6 6.4 0.00 0.00 0.00 72 1015.7
20260510111508 5 271 1.6 4.8 0.00 0.00 0.00 71 1015.5
20260510110015 6 290 0.0 3.2 0.00 0.00 0.00 68 1015.2
20260510104606 6 269 1.6 3.2 0.00 0.00 0.00 67 1015.0
20260510103103 6 271 0.0 3.2 0.00 0.00 0.00 64 1014.9
20260510101512 7 278 0.0 3.2 0.00 0.00 0.00 65 1014.6
20260510100010 7 295 0.0 3.2 0.00 0.00 0.00 62 1014.5
20260510094525 7 282 0.0 4.8 0.00 0.20 0.00 62 1014.5
20260510093010 7 295 0.0 4.8 0.00 0.20 0.00 62 1014.2
20260510091604 7 282 1.6 4.8 0.00 0.20 0.00 63 1014.1
20260510090013 7 301 0.0 6.4 0.00 0.20 0.00 60 1013.9
20260510084508 7 300 1.6 4.8 0.00 0.23 0.00 60 1014.0
20260510083006 7 311 3.2 9.7 0.00 0.23 0.00 60 1013.8
20260510081606 7 334 1.6 6.4 0.00 0.23 0.00 60 1013.5
20260510080014 6 345 1.6 4.8 0.00 0.23 0.00 59 1013.3
20260510074508 6 278 1.6 6.4 0.00 0.23 0.00 62 1013.2
20260510073007 6 281 0.0 3.2 0.00 0.23 0.00 63 1013.1
20260510070017 4 275 1.6 4.8 0.00 0.23 0.00 73 1012.9
20260510064506 3 286 0.0 3.2 0.00 0.23 0.00 74 1012.8
20260510063006 3 297 0.0 1.6 0.00 0.23 0.00 77 1012.8
20260510061505 3 315 0.0 0.0 0.00 0.23 0.00 75 1012.7
20260510060013 3 315 0.0 0.0 0.00 0.23 0.00 76 1012.9
20260510054506 3 315 0.0 1.6 0.00 0.23 0.00 73 1012.8
20260510053106 3 315 0.0 0.0 0.00 0.23 0.00 68 1012.6
20260510051510 4 315 0.0 1.6 0.00 0.23 0.00 67 1012.5
20260510050009 5 315 0.0 0.0 0.00 0.23 0.00 64 1012.3
20260510044505 5 315 0.0 0.0 0.00 0.23 0.23 62 1012.2
20260510043012 6 315 0.0 0.0 0.00 0.23 0.23 54 1012.2
20260510041509 8 315 0.0 1.6 0.00 0.23 0.23 50 1012.3
20260510040008 9 315 0.0 1.6 0.00 0.23 0.23 48 1012.1
20260510034505 9 316 0.0 1.6 0.00 0.23 0.23 47 1012.0
20260510033004 9 341 0.0 1.6 0.00 0.23 0.23 46 1012.0
20260510031604 10 350 0.0 4.8 0.00 0.23 0.23 45 1011.9
20260510030011 10 345 0.0 4.8 0.00 0.23 0.23 44 1011.7
20260510024509 10 330 1.6 14.5 0.00 0.23 0.23 43 1011.5
20260510023008 10 360 3.2 9.7 0.00 0.23 0.23 43 1011.2
20260510021519 11 1 1.6 8.0 0.00 0.23 0.23 43 1010.9
20260510020003 11 310 1.6 6.4 0.00 0.23 0.23 41 1010.5
20260510014603 11 359 3.2 9.7 0.00 0.23 0.23 40 1010.2
20260510013021 11 288 1.6 8.0 0.00 0.23 0.23 40 1009.8
20260510011510 11 305 3.2 14.5 0.00 0.23 0.23 40 1009.4
20260510010004 12 337 1.6 9.7 0.00 0.23 0.23 39 1009.2
20260510004512 12 299 3.2 9.7 0.00 0.23 0.23 39 1008.9
20260510003010 12 21 4.8 17.7 0.00 0.23 0.23 36 1008.7
20260510001511 13 311 6.4 22.5 0.00 0.23 0.23 36 1008.5
20260510000005 13 305 6.4 20.9 0.00 0.23 0.23 37 1008.3
20260509234503 13 299 8.0 16.1 0.00 0.23 0.23 37 1008.0
20260509233004 14 307 11.3 20.9 0.00 0.23 0.23 34 1008.0
20260509231507 15 345 3.2 12.9 0.00 0.23 0.23 33 1007.8
20260509230009 13 314 6.4 24.1 0.00 0.23 0.23 34 1007.6
20260509224508 13 285 4.8 17.7 0.00 0.23 0.23 34 1007.5
20260509223013 13 24 4.8 22.5 0.00 0.23 0.23 35 1007.2
20260509221507 15 3 6.4 20.9 0.00 0.23 0.23 31 1007.3
20260509220008 15 345 3.2 14.5 0.00 0.23 0.23 31 1007.0
20260509214511 15 305 8.0 22.5 0.00 0.23 0.23 34 1006.9
20260509213024 15 345 4.8 16.1 0.00 0.23 0.23 33 1006.8
20260509211508 15 297 4.8 19.3 0.00 0.23 0.23 34 1006.6
20260509210109 15 292 8.0 14.5 0.00 0.23 0.23 36 1006.4
20260509204506 15 274 3.2 20.9 0.00 0.23 0.23 34 1006.5
20260509203005 14 304 4.8 16.1 0.00 0.23 0.23 35 1006.4
20260509201604 14 267 8.0 25.7 0.00 0.23 0.23 37 1006.3
20260509200013 15 278 11.3 17.7 0.00 0.23 0.23 37 1006.2
20260509194509 15 288 6.4 19.3 0.00 0.23 0.23 36 1006.1
20260509193011 15 355 8.0 19.3 0.00 0.23 0.23 32 1006.0
20260509191506 15 313 4.8 19.3 0.00 0.23 0.23 41 1006.0